www.pogodaiklimat.ru

Погода и климат >> Архив погоды >> Россия >> Дагестан >> Сергокала


ПОГОДА в Сергокале

  • Прогноз погоды в Сергокале
  • Монитор погоды в Сергокале

АРХИВ ПОГОДЫ в Сергокале

Время (UTC), дата Ветер
(напр.,м/с)
 
Видим.   Явления Облачность Т
(С)
Тd
(С)
f
(%)
Тe
(С)
Тes
(С)
Комфортность P
(гПа)
Po
(гПа)
Тmin
(С)
Tmax
(С)
R
(мм)
R24
(мм)
S
(см)
12 11.06 СВ 3 20 км 1/0
[Ci sp]
+28.1 +14.6 44 +31 +40 душно 1008.0 951.3
15 11.06 В 3 20 км 8/8 600 м
[Cu Sc]
+25.9 +14.9 51 +29 +29 душно 1007.8 950.8 +28.6
18 11.06 штиль 0 10 км 8/8 600 м
[Sc]
+19.8 +14.0 69 +21 +21 комфорт 1010.1 951.7
21 11.06 СЗ 1 10 км 9/9 600 м
[Sc]
+18.8 +14.0 74 +21 +21 комфорт 1009.2 950.7
00 12.06 СЗ 1 10 км 10/10 600 м
[Sc]
+17.9 +13.2 74 +19 +19 1008.7 950.0
03 12.06 СЗ 1 20 км 9/9 600 м
[Sc]
+18.6 +12.4 67 +20 +21 1009.7 951.1 +17.0
06 12.06 С 4 20 км 9/8 600 м
[Sc Ac trans]
+23.1 +6.9 35 +24 +25 комфорт 1009.8 951.9
09 12.06 В 3 20 км 3/1 600 м
[Sc As trans Ci fib]
+25.7 +14.1 49 +28 +41 жарко 1008.6 951.4
12 12.06 В 6
{11}
20 км 6/4 600 м
[Sc As trans Ci fib]
+24.7 +16.1 59 +28 +30 душно 1007.7 950.4
15 12.06 штиль 0 20 км 8/6 600 м
[Sc As trans]
+22.6 +13.4 56 +26 +26 жарко 1010.0 952.2 +28.0
18 12.06 Ю 4
{13}
10 км гроза, ливневой дождь 10/10 600 м
[Cb cap]
+19.4 +13.7 70 +21 +21 комфорт 1010.3 951.8
21 12.06 ЮЗ 6
{14}
10 км {гроза, ливн. осадки} 9/8 600 м
[Sc diur, vesp As trans]
+20.4 +12.6 61 +22 +22 комфорт 1009.2 950.9
00 13.06 СЗ 2 10 км {гроза, ливн. осадки} 9/4 600 м
[Sc As trans]
+19.2 +12.2 64 +21 +21 комфорт 1009.3 950.8
03 13.06 ЮЗ 3 20 км 5/3 600 м
[Sc Ac trans]
+21.9 +12.8 56 +24 +25 комфорт 1008.3 950.3 +17.5 2
06 13.06 ЮВ 3 20 км 9/8 600 м
[Sc Ac trans]
+26.4 +7.5 30 +26 +28 жарко 1007.7 950.6
09 13.06 В 5 20 км 3/1 600 м
[Sc Ac trans]
+29.4 +8.7 27 +29 +37 жарко 1006.7 950.2
12 13.06 В 6
{11}
20 км 8/5 600 м
[Sc Ac trans Ci fib]
+28.3 +3.8 21 +27 +28 жарко 1007.3 950.5
15 13.06 ЮЗ 1 20 км 9/9 600 м
[Sc]
+24.7 +9.8 39 +26 +26 жарко 1009.5 952.0 +30.0
18 13.06 ЮЗ 3 10 км 9/3 600 м
[Sc Ac trans Ci fib]
+21.1 +10.4 50 +23 +23 комфорт 1010.0 951.8
21 13.06 З 2 10 км 10/10 600 м
[Sc]
+23.0 +8.7 40 +24 +24 комфорт 1010.1 952.2
00 14.06 ЮЗ 1 10 км 10/10 600 м
[Sc]
+22.6 +9.4 43 +24 +24 комфорт 1011.5 953.4
03 14.06 СЗ 1 20 км 6/3 600 м
[Sc Ci fib]
+21.9 +10.3 48 +24 +25 комфорт 1012.0 953.8 +21.0
06 14.06 С 4 20 км 8/4 600 м
[Sc Ac lent]
+28.2 +8.1 28 +28 +30 жарко 1011.4 954.4
09 14.06 СВ 1 20 км 3/0
[Ac lent]
+29.9 +7.9 25 +29 +47 жарко 1011.7 955.0
12 14.06 В 3
{10}
20 км 6/4 600 м
[Sc Ac lent]
+23.9 +17.9 69 +28 +32 душно 1014.2 956.4
15 14.06 В 1 20 км 9/3 600 м
[Sc Ac lent]
+22.8 +17.3 71 +28 +28 душно 1014.3 956.3 +30.2
18 14.06 ЮВ 1 10 км 3/0
[Ac lent]
+18.7 +16.8 89 +21 +21 комфорт 1015.9 957.0
21 14.06 ЮЗ 2 10 км ясно +17.2 +14.4 84 +18 +18 1015.5 956.3
00 15.06 Ю 1 10 км ясно +16.9 +15.9 94 +18 +18 1014.8 955.6
03 15.06 штиль 0 20 км ясно +19.1 +14.3 74 +20 +23 1014.2 955.5 +14.8
06 15.06 В 4 20 км ясно +23.7 +14.9 58 +27 +35 жарко 1013.5 955.7
09 15.06 В 5 20 км ясно +24.8 +15.0 54 +28 +38 жарко 1012.4 954.8
12 15.06 В 4
{10}
20 км 3/3 600 м
[Cu hum]
+23.6 +11.0 45 +25 +31 комфорт 1011.9 954.1
15 15.06 В 3 20 км 8/4 600 м
[Sc Ac lent]
+20.9 +11.9 56 +23 +24 комфорт 1011.8 953.5 +25.2
18 15.06 С 1 10 км ясно +17.6 +11.7 68 +19 +19 1012.5 953.5
21 15.06 ЮЗ 2 10 км ясно +17.3 +13.1 76 +18 +18 1011.6 952.6
00 16.06 З 1 10 км 3/3 600 м
[Sc]
+16.5 +12.5 77 +17 +17 1011.3 952.2
03 16.06 ЮЗ 1 20 км ясно +20.1 +12.8 63 +23 +26 комфорт 1010.0 951.6 +15.9
06 16.06 В 2 20 км 3/0 <50 м
[As trans Cc]
+25.4 +12.5 45 +27 +38 жарко 1008.5 951.2
09 16.06 В 3 20 км 3/1 1000 м
[Cu med, cong Ac trans Cs]
+28.4 +9.9 32 +29 +42 жарко 1007.1 950.4
12 16.06 В 2 20 км в посл. час гроза 3/3 600 м
[Cu Sc As trans Ci fib]
+26.3 +4.5 25 +25 +34 комфорт 1007.6 950.4
15 16.06 В 2 20 км 9/8 1000 м
[Sc diur, vesp As trans]
+21.7 +8.9 44 +23 +23 комфорт 1008.3 950.2 +29.2
18 16.06 ЮЗ 2 10 км 6/3 600 м
[Sc As trans Ci fib]
+21.2 +10.8 51 +23 +23 комфорт 1008.9 950.8
21 16.06 ЮЗ 2 4000 м 1/1 600 м
[Sc]
+19.7 +9.9 53 +21 +21 комфорт 1008.2 949.8
00 17.06 З 2 10 км 3/0
[As trans Ci fib]
+20.0 +8.9 49 +22 +22 комфорт 1007.3 949.0
03 17.06 З 1 20 км 4/0 <50 м
[As trans Ci fib]
+22.8 +11.3 48 +25 +27 комфорт 1007.1 949.4 +18.6
06 17.06 СВ 2 20 км 1/0
[Ci fib]
+28.5 +9.7 31 +29 +41 жарко 1006.9 950.2
09 17.06 В 3 20 км 4/1 600 м
[Sc Ac trans Ci fib]
+28.2 +12.7 38 +30 +42 жарко 1007.1 950.4
12 17.06 Ю 5 4000 м в посл. час ливневой дождь {гроза} 10/10 600 м
[Frnb Ns]
+20.1 +16.5 80 +23 +23 комфорт 1008.9 950.7
15 17.06 ЮЗ 5
{10}
20 км {гроза} 9/9 600 м
[Sc]
+24.8 +11.9 44 +26 +26 жарко 1007.7 950.3 +30.0 1
18 17.06 ЮЗ 6
{13}
10 км {гроза} 10/10 600 м
[Sc]
+23.1 +11.8 49 +26 +26 жарко 1008.8 951.1
21 17.06 З 1 10 км 3/3 600 м
[Sc]
+19.2 +12.2 64 +21 +21 комфорт 1010.3 951.8
00 18.06 З 1 10 км 10/10 600 м
[Sc]
+19.1 +11.6 62 +21 +21 комфорт 1010.4 951.8
03 18.06 ЮЗ 3 4000 м слаб. дождь 10/10 600 м
[Frnb Ns]
+19.4 +14.0 71 +21 +21 комфорт 1011.2 952.6 +18.1 0.1
06 18.06 ЮЗ 1 20 км 9/9 600 м
[Sc]
+23.8 +14.5 56 +26 +28 жарко 1009.9 952.2 +17.6
09 18.06 С 3 20 км 9/4 600 м
[Cu hum Ac lent]
+27.6 +9.0 31 +28 +31 жарко 1008.9 952.0

 

Местоположение метеостанции Сергокала (Дагестан, Россия): широта 42.45 долгота 47.67 высота над уровнем моря 518 м.

В архиве по умолчанию представлена погода в Сергокале за последнюю неделю. Архивные данные за месяц целиком и за предыдущие месяцы, начиная с января 2011 года, Вы можете получить, выбрав интересующий диапазон дат из раскрывающегося списка и нажав кнопку "Ввод!".


*Определитесь, кто Вы:
робот инопланетянин человек

Внимание! Время в таблицах - всемирное. Для получения местного времени необходимо прибавить поправку, которая равна 3 ч.

Смотрите также архив погоды в соседних городах и на ближайших метеорологических станциях:

Погода в Изберге (Дагестан, Россия) (22 км)
Погода в Куппе (Дагестан, Россия) (47 км)
Погода в Гунибе (Дагестан, Россия) (58 км)
Погода в Кумухе (Дагестан, Россия) (58 км)
Погода в Буйнакске (Дагестан, Россия) (61 км)
Погода в Махачкале (Дагестан, Россия) (65 км)
Погода в Дербенте (Дагестан, Россия) (67 км)
Погода в Хунзахе (Дагестан, Россия) (81 км)
Погода в Касумкенте (Дагестан, Россия) (95 км)
Погода в Ахты (Дагестан, Россия) (109 км)

Пояснения к столбцам:

Ветер - указаны скорость ветра в м/с - средняя за 10 мин, порывы в срок и между сроками (в фигурных скобках) и направление, откуда дует ветер: С - северный, СВ - северо-восточный, В - восточный, ЮВ - юго-восточный, Ю - южный, ЮЗ - юго-западный, З - западный, СЗ - северо-западный.
Видимость - горизонтальная дальность видимости в метрах или километрах. При видимости от 1 до 10 км при отсутствии осадков обычно наблюдается дымка, при ухудшении видимости до 1 км и менее - туман. В сухую погоду видимость может ухудшаться дымом, пылью или мглою.
Явления - указаны атмосферные явления, наблюдавшиеся в срок или в последний час перед сроком; фигурными скобками обозначены явления, наблюдавшиеся между сроками (за 1-3 часа до срока); квадратными скобками обозначены град или гололедные отложения с указанием их диаметра в мм.
Облачность - указаны через наклонную черту общая и нижняя облачность в баллах и высота нижней границы облаков в метрах; квадратными скобками обозначены формы облаков: Ci - перистые, Cs - перисто-слоистые, Cc - перисто-кучевые, Ac - высококучевые, As - высокослоистые, Sc - слоисто-кучевые, Ns - слоисто-дождевые, Cu - кучевые, Cb - кучево-дождевые. Подробнее классификацию облаков см. в Атласе облаков (PDF).
T - Температура воздуха - температура, измеренная на высоте 2 м над землей.
Td - Температура точки росы - температура, при понижении до которой содержащийся в воздухе водяной пар достигнет насыщения.
f - Относительная влажность воздуха - влажноcть воздуха, измеренная на высоте 2 м над землей.
Te - Эффективная температура - температура, которую ощущает одетый по сезону человек в тени. Характеристика душности погоды. При расчете учитывается влияние влажности воздуха и скорости ветра на теплоощущения человека.
Tes - Эффективная температура на солнце - температура, которую ощущает человек, с поправкой на солнечный нагрев. Характеристика знойности погоды. Зависит от высоты солнца над горизонтом, облачности и скорости ветра. Ночью, в пасмурную погоду, а также при ветре 12 м/с и более поправка равна нулю.
P - Атмосферное давление - приведенное к уровню моря атмосферное давление.
Po - Атмосферное давление - измеренное на уровне метеостанции атмосферное давление.
Tmin - Минимальная температура - минимум температуры воздуха на высоте 2 м над землей.
Tmax - Максимальная температура - максимум температуры воздуха на высоте 2 м над землей.
R - Количество осадков - Количество выпавших осадков за период времени, мм. При наведении курсора мыши на число - период времени, за который выпало указанное количество осадков.
R24 - Количество осадков - Количество выпавших осадков за 24 часа, мм.
S - Снежный покров - Высота снежного покрова, см. При наведении курсора мыши на число - состояние снежного покрова и степень покрытия местности в баллах.